Tracking 31032 objects as of 14-Jul-2025
HD Live streaming from Space Station
objects crossing your sky now

SL-19 R/B

Track SL-19 R/B now!
10-day predictions


NORAD ID: 32957
Int'l Code: 2008-025E
Perigee: 1,202.6 km
Apogee: 1,512.7 km
Inclination: 82.5 °
Period: 112.7 minutes
Semi major axis: 7728 km
RCS: 6.575 m2 (large)
Launch date: May 23, 2008
Source: Commonwealth of Independent States (former USSR) (CIS)
Launch site: PLESETSK MISSILE AND SPACE COMPLEX (PKMTR)

Note: This is a ROCKET BODY
Your satellite tracking list
Your tracking list is empty




NASA's NSSDC Master Catalog

Two Line Element Set (TLE):
1 32957U 08025E   25194.56796182  .00000027  00000-0  56904-4 0  9993
2 32957  82.5043 304.9327 0200602  99.9748 273.0967 12.77755777799356
Source of the keplerian elements: AFSPC